{"data":{"norad_id":66388,"epoch":"2026-09-20T20:24:41.427936Z","epoch_age_seconds":62828,"freshness":"FRESH","line1":"1 66388U 25257J   26263.85047949  .00015843  00000+0  47892-3 0  9990","line2":"2 66388  53.1596  28.3859 0001226  68.2193 291.8940 15.34407186 49631","mean_motion":15.34407186,"eccentricity":0.0001226,"inclination_deg":53.1596,"raan_deg":28.3859,"arg_perigee_deg":68.2193,"mean_anomaly_deg":291.894,"bstar":0.00047892,"rev_number":4963,"period_min":93.847318569583,"perigee_km":461.84319758915,"apogee_km":463.52056637901,"semimajor_km":6840.8188819841,"source":"CELESTRAK","updated_at":"2026-09-21T09:00:35.886715Z"}}